Вернуться в каталог

HJS-7C

АктивенНаукаLEO
NORAD 65619·PAYLOAD·🇨🇳 China

Запущен Sep 16, 2025 с Jiuquan Satellite Launch Center

Loading…

Ближайшие Пролёты (ближайшие 24 часа)

TLE

СвежийSource: Space-Track

Эпоха: Sep 14, 2026, 09:28 UTC

1 65619U 25209C   26257.39512737 -.00000080  00000-0  85614-4 0  9991
2 65619  50.0012  31.7704 0002056  60.8846 299.2238 13.41474444 49615

Отслеживайте HJS-7C в реальном времени с AllMySat

Download on the App Store